Location: Bishop�s Knoyle
(51.0728°N, 2.1714°W)
Time: 13:21:18
(UTC+00:00)

NOSS 3-4 (C) - Pass Details

Date: 24 January 2021
Orbit: 878 x 1335 km, 63.4° (Epoch: 16 February)

Event Time Altitude Azimuth Distance (km) Brightness Sun altitude
Rises 20:29:04 0° 305° (NW) 3,662 7.4 -34.6°
Reaches altitude 10° 20:31:48 10° 315° (NW) 2,773 6.5 -35.1°
Enters shadow 20:36:07 31° 353° (N) 1,755 4.9 -35.7°
